Regional Weather Roundup
Issued by NWS

Home | Current Version | Previous Version | Text Only | Print | Product List | Glossary Off
Versions: 1 2 3 4 5 6 7 8 9 10 11 12 13 14 15 16 17 18 19 20 21 22 23 24 25 26 27 28 29 30 31 32 33 34 35 36 37 38 39 40 41 42 43 44 45 46 47 48 49 50

349
ASUS43 KOAX 271602
RWRNE

WEATHER ROUNDUP FOR NEBRASKA
NATIONAL WEATHER SERVICE OMAHA NE
1100 AM CDT THU APR 27 2017

NOTES: SATELLITE DATA IS BEING USED TO AUGMENT CLOUD COVER ABOVE
       12000 FEET.
       "FAIR" INDICATES FEW OR NO CLOUDS BELOW 12,000 FEET WITH NO
       SIGNIFICANT WEATHER AND/OR OBSTRUCTIONS TO VISIBILITY.

  * THESE STATIONS DO NOT REPORT WEATHER SUCH AS RAIN...SNOW OR FOG.

NEZ001>004-019>022-054>056-271700-
NEBRASKA PANHANDLE

CITY           SKY/WX    TMP DP  RH WIND       PRES   REMARKS
SCOTTSBLUFF    CLOUDY    44  37  76 E9        29.57F
ALLIANCE       CLOUDY    43  33  68 S12       29.59S
CHADRON        CLOUDY    42  34  73 N10       29.61F
KIMBALL        LGT RAIN  46  37  70 E3        29.57F
SIDNEY         CLOUDY    43  39  86 E7        29.59F
$$

NEZ057>060-069>072-079>082-271700-
SOUTHWEST NEBRASKA

CITY           SKY/WX    TMP DP  RH WIND       PRES   REMARKS
NORTH PLATTE   CLOUDY    47  34  60 E12       29.66S
IMPERIAL       CLOUDY    46  34  62 SE16      29.61S
LEXINGTON      CLOUDY    47  32  56 E8        29.69S
MCCOOK         CLOUDY    44  33  65 SE13      29.66F
OGALLALA       CLOUDY    47  35  64 E12       29.61F
$$

NEZ005>010-023>029-035>040-094-271700-
NORTH CENTRAL NEBRASKA

CITY           SKY/WX    TMP DP  RH WIND       PRES   REMARKS
VALENTINE      SUNNY     45  29  53 E5        29.68S
AINSWORTH      SUNNY     42  33  70 NE6       29.68F
BROKEN BOW     CLOUDY    44  30  57 SE3       29.68F
O`NEILL        CLOUDY    37  30  74 N12       29.71F WCI  30
ORD            SUNNY     47  32  56 N3        29.70R
THEDFORD       CLOUDY    45  32  60 E5        29.68S
$$

NEZ041-046>049-061>064-073>077-083>087-271700-
SOUTH CENTRAL NEBRASKA

CITY           SKY/WX    TMP DP  RH WIND       PRES   REMARKS
GRAND ISLAND   SUNNY     47  32  56 VRB3      29.73S
AURORA         SUNNY     49  31  50 NW5       29.72S
HASTINGS       CLOUDY    46  32  58 CALM      29.73F
HEBRON         CLOUDY    47  32  55 CALM      29.75R
HOLDREGE       CLOUDY    43  30  61 SE7       29.71R
KEARNEY *      CLOUDY    45  28  53 CALM      29.72S
YORK           SUNNY     46  30  53 N3        29.73S
$$

NEZ011>018-030>034-042>045-271700-
NORTHEAST NEBRASKA

CITY           SKY/WX    TMP DP  RH WIND       PRES   REMARKS
NORFOLK        CLOUDY    37  30  75 N12       29.70F WCI  29
ALBION         MOSUNNY   40  32  71 N12       29.72S WCI  34
BLAIR          CLOUDY    39  32  75 NW9       29.72R WCI  33
FREMONT        CLOUDY    41  32  71 NW7       29.73F
TEKAMAH        CLOUDY    42  30  62 NW15      29.73S
WAYNE          CLOUDY    38  31  76 NW12G17   29.71F WCI  31
$$

NEZ050>053-065>068-078-088>093-271700-
SOUTHEAST NEBRASKA

CITY           SKY/WX    TMP DP  RH WIND       PRES   REMARKS
LINCOLN        SUNNY     48  31  51 VRB5      29.76R
OMAHA EPPLEY   CLOUDY    42  31  64 N6        29.73S
BEATRICE       SUNNY     49  33  54 NW8       29.75R
FALLS CITY     SUNNY     50  35  56 W13       29.74R
NEBRASKA CITY  MOSUNNY   46  31  55 NW7       29.74R
PLATTSMOUTH    CLOUDY    44  31  61 NW8       29.73R
$$

NEZ044-045-051>053-067-271700-
OMAHA AREA

CITY           SKY/WX    TMP DP  RH WIND       PRES   REMARKS
OMAHA EPPLEY   CLOUDY    42  31  64 N6        29.73S
BLAIR          CLOUDY    39  32  75 NW9       29.72R WCI  33
FREMONT        CLOUDY    41  32  71 NW7       29.73F
MILLARD        CLOUDY    42  33  72 NW7       29.74R
OFFUTT AFB     CLOUDY    42  32  67 W8        29.73R
PLATTSMOUTH    CLOUDY    44  31  61 NW8       29.73R
WAHOO          CLOUDY    42  32  68 N5        29.73S
$$




USA.gov is the U.S. government's official web portal to all federal, state and local government web resources and services.